Find Starlink 5879

NORAD ID: 57153 Int'l Des: 2023-090 Owner: SPXS Country: US Constellation: starlink operational
LEOCIRCULAR

現在のビュー

3D地球を読み込み中...

About Starlink 5879

Starlink 5879 (NORAD 57153) is a starlink constellation satellite (v1.5) launched Jun 23, 2023 by SPXS of US. It operates in LEO, CIRCULAR orbit with a mass of 305.00 kg.

Starlink 5879について

説明を読み込み中...

次回通過

Passes for default location (London). Set your location on the main map for personalized predictions.

高度履歴

Loading altitude history...

軌道要素

1 57153U 23090BE 26195.16621618 .00000660 00000-0 33509-4 0 9995
2 57153 43.0018 257.9861 0002140 296.5032 63.5600 15.27575583169511
Epoch: Jul 14, 2026 • Age: 11 hours

現在のステータス

高度 481.8 km
遠地点 / 近地点 N/A
速度 7.63 km/s
衛星直下点 12.41°N, 110.65°E
打ち上げ日 Jun 23, 2023
運用期間 3 years
タイプ internet

技術仕様

分類 Payload
質量 305.00 kg
乾燥質量 290.00 kg
総質量 305.00 kg
長さ 0.20 m
直径 2.80 m
スパン 9.00 m
形状 Box + pan
製造者 SPXS
バスタイプ Starlink
フェーズステータス In Orbit
所有者/国 SPXS/US

Most Searched